Location: Shandelee
(41.8790°N, 74.8713°W)
Time: 04:01:51
(UTC+00:00)

CZ-4B R/B - Pass Details

Date: 29 October 2020
Orbit: 389 x 462 km, 97.6° (Epoch: 23 November)

Event Time Altitude Azimuth Distance (km) Brightness Sun altitude
Rises 23:21:19 0° 357° (N) 2,376 5.1 -16.2°
Reaches altitude 10° 23:23:40 10° 341° (NNW) 1,492 4.2 -16.7°
Maximum altitude 23:26:05 20° 291° (WNW) 1,002 4.0 -17.1°
Drops below altitude 10° 23:28:27 10° 241° (WSW) 1,454 5.0 -17.6°
Sets 23:30:42 0° 224° (SW) 2,296 5.7 -18.0°
